Demo 6
Misión y Visión

La misión es proporcionar información fiable a la navegación aérea, contribuyendo a la seguridad, regularidad y eficiencia de la Navegación Aérea Internacional

La visión es contribuir sustancialmente al desarrollo de conocimientos y a la utilización de la meteorología aeronáutica a nivel nacional e internacional, mediante la innovación y la coparticipación con sectores sociales y productivos de la sociedad.

 
  Inicio
  Metar
  Taf
  Wintemp
  SIGMET
  Avisos
  Pronósticos
  Carpeta Meteorologica
  Imágenes Satelitales
  Climatología Aeronáutica
   
  ¿Quienes Somos?
  Contacto
  Eventos
Taf

 

AERÓDROMO
(EN CONSTRUCCION)

 

PRONOSTICO DE AERÓDROMO
TAF / PROYECCION CLIMATICA
MES DE JULIO

 

AEROPUERTO ENRIQUE MALEK:


TAF:

TAF MPDA 211700Z 2118/2206 21008KT 9999 SCT018 PROB40 2120/2124 5000 TSRA SCT016CB BKN080 TEMPO 2201/2204 03005KT=

 

AEROPUERTO PANAMA PACIFICO:



TAF:

TAF MPPA 211700Z 2118/2224 01009KT 9999 SCT018 PROB40 2119/2123 19009KT 5000 TSRA SCT015CB BKN090 TEMPO 2201/2205 00000KT TEMPO 2210/2213 VRB03KT PROB30 2119/2123 21009KT 5000 SCT015CB BKN080=



AEROPUERTO MARCOS A. GELABERT:



TAF:

TAF MPMG 211700Z 2118/2206 32009KT 9999 SCT018 PROB40 2119/2123 18010KT 5000 TSRA SCT015CB BKN090 TEMPO 2202/2206 VRB03KT=

AEROPUERTO INTL. DE TOCUMEN:



TAF:

TAF MPTO 211700Z 2118/2224 33008KT 9999 SCT018 PROB40 2118/2122 17009KT 5000 TSRA SCT015CB BKN090 TEMPO 2206/2210 24006KT TEMPO 2212/2215 04006KT PROB30 2120/2124 18009KT 5000 SCT015CB BKN080=



Fatal error: Uncaught Error: Class 'htmlsql' not found in C:\Apache24\htdocs\met\meteorologia-taf.php:249 Stack trace: #0 {main} thrown in C:\Apache24\htdocs\met\meteorologia-taf.php on line 249